Weather History for KDRO - February, 2012

Change the Weather History Date:

Monday, February 20, 2012

  Actual Average Record
Temperature  
Mean Temperature 20 °F 30 °F  
Max Temperature 32 °F 44 °F 67 °F (1972)
Min Temperature 8 °F 16 °F 5 °F (1978)
Degree Days  
Heating Degree Days 45 35  
Month to date heating degree days 710 753  
Since 1 July heating degree days 4569 4907  
Cooling Degree Days 0 0  
Month to date cooling degree days 0  
Year to date cooling degree days 0  
Moisture  
Dew Point 9 °F    
Average Humidity 60    
Maximum Humidity 84    
Minimum Humidity 36    
Precipitation  
Precipitation 0.00 in 0.04 in 0.82 in (1980)
Month to date precipitation 0.88 0.84  
Year to date precipitation 1.47 1.96  
Sea Level Pressure  
Sea Level Pressure 30.13 in    
Wind  
Wind Speed 9 mph (WSW)    
Max Wind Speed 25 mph    
Max Gust Speed 30 mph    
Visibility 10 miles    
Events      
T = Trace of Precipitation, MM = Missing Value Source: NWS Daily Summary

Daily Weather History Graph

Daily Weather History Graph

Search for Another Location

Airport or City:

Trip Planner

Search our weather history database for the weather conditions in past years. The results will help you decide how hot, cold, wet, or windy it might be!

Date:

Astronomy

Feb. 20, 2012 Rise Set
Actual Time 6:54 AM MST 5:55 PM MST
Civil Twilight 6:27 AM MST 6:22 PM MST
Nautical Twilight 5:57 AM MST 6:52 PM MST
Astronomical Twilight 5:27 AM MST 7:22 PM MST
Moon 5:52 AM MST (2/20) 5:03 PM MST (2/20)
Length of Visible Light 11h 54m
Length of Day
11h 01m
Waning Crescent, 1% of the Moon is Illuminated
Feb 20
Waning Crescent
Feb 21
New
Feb 29
First Quarter
Mar 8
Full
Mar 14
Last Quarter

Hourly Weather History & Observations

Time (MST) Temp. Windchill Dew Point Humidity Pressure Visibility Wind Dir Wind Speed Gust Speed Precip Events Conditions
12:53 AM 19.9 °F 6.7 °F 15.1 °F 81% 29.88 in 10.0 mi West 13.8 mph - N/A   Clear
1:53 AM 17.1 °F 5.8 °F 12.9 °F 84% 29.91 in 10.0 mi SW 9.2 mph - N/A   Clear
2:53 AM 17.1 °F 2.0 °F 12.0 °F 81% 29.91 in 10.0 mi WSW 16.1 mph - N/A   Clear
3:53 AM 17.1 °F 5.0 °F 9.0 °F 71% 29.93 in 10.0 mi West 10.4 mph - N/A   Clear
4:53 AM 17.1 °F -1.0 °F 8.1 °F 68% 29.95 in 10.0 mi West 24.2 mph 29.9 mph N/A   Clear
5:53 AM 15.1 °F 1.8 °F 8.1 °F 74% 30.00 in 10.0 mi West 11.5 mph - N/A   Clear
6:53 AM 10.9 °F 0.2 °F 5.0 °F 77% 30.06 in 10.0 mi SSW 6.9 mph - N/A   Clear
7:53 AM 10.9 °F - 5.0 °F 77% 30.11 in 10.0 mi Calm Calm - N/A   Clear
8:53 AM 18.0 °F 6.9 °F 8.1 °F 65% 30.12 in 10.0 mi WSW 9.2 mph - N/A   Clear
9:53 AM 21.9 °F 12.5 °F 9.0 °F 58% 30.14 in 10.0 mi SW 8.1 mph - N/A   Clear
10:53 AM 25.0 °F 15.5 °F 10.0 °F 53% 30.16 in 10.0 mi WSW 9.2 mph - N/A   Clear
11:53 AM 27.0 °F 16.7 °F 10.0 °F 49% 30.15 in 10.0 mi WSW 11.5 mph - N/A   Clear
1:53 PM 30.9 °F 22.2 °F 10.0 °F 42% 30.15 in 10.0 mi SW 10.4 mph 17.3 mph N/A   Clear
2:53 PM 30.9 °F 19.4 °F 10.9 °F 43% 30.15 in 10.0 mi WSW 17.3 mph 24.2 mph N/A   Clear
3:53 PM 30.9 °F 19.4 °F 8.1 °F 38% 30.16 in 10.0 mi WSW 17.3 mph 24.2 mph N/A   Clear
4:53 PM 30.0 °F 20.0 °F 7.0 °F 38% 30.18 in 10.0 mi WSW 12.7 mph - N/A   Clear
5:53 PM 27.0 °F 18.7 °F 8.1 °F 45% 30.22 in 10.0 mi WSW 8.1 mph - N/A   Clear
6:53 PM 26.1 °F - 6.1 °F 43% 30.27 in 10.0 mi Calm Calm - N/A   Clear
7:53 PM 21.9 °F - 9.0 °F 58% 30.32 in 10.0 mi Calm Calm - N/A   Clear
8:53 PM 21.9 °F 15.7 °F 10.0 °F 60% 30.30 in 10.0 mi NNE 4.6 mph - N/A   Scattered Clouds
9:53 PM 19.9 °F - 12.0 °F 71% 30.30 in 10.0 mi Calm Calm - N/A   Overcast
10:53 PM 19.0 °F - 12.0 °F 74% 30.30 in 10.0 mi Calm Calm - N/A   Scattered Clouds
11:53 PM 18.0 °F - 10.9 °F 74% 30.28 in 10.0 mi Calm Calm - N/A   Clear